Torna al catalogo

XI'AN HANGTOU 104

AttivoScienzaSSO
NORAD 57585·PAYLOAD·🇨🇳 China
Questo nome del satellite non è ancora stato confermato da fonti ufficiali.

Lanciato Aug 10, 2023 da Jiuquan Satellite Launch Center

Loading…

Prossimi Passaggi (prossime 24 ore)

TLE

AggiornatoSource: Space-Track

Epoca: Sep 14, 2026, 22:22 UTC

1 57585U 23117F   26257.93199909  .00022624  00000-0  42662-3 0  9994
2 57585  97.4156 346.1462 0004640 248.3360 111.7397 15.48488167172720

Traccia XI'AN HANGTOU 104 in tempo reale con AllMySat

Download on the App Store